Showing default

RAPTOR2, 58959

Orbit data source: Space-Track

RAPTOR2, 58959 is a payload satellite owned by SDA (US) in LEO that was launched on Wed, 14 Feb 2024 UTC via an FALCON 9 launch vehicle from the Air Force Eastern Test Range (AFETR). Payload-class satellites include a variety of spacecraft equipped with specific instruments for various scientific and technological missions. These include communications satellites like Starlink; space stations such as the ISS; scientific satellites like the Hubble; Earth observation satellites from companies like Planet Labs, Umbra, and HawkEye 360; GPS; miniature CubeSats for education and research; and military/defense satellites.

Loading next visibility...
Identifier
58959, 2024-028E
Orbit
LEO
Country
Flag of USUS
Related business
Manufacturer
L3Harris SIS
Mission
Operational Defense Early Warn
Bus & Motor
TPL0-L3H, Unknown motor
Mass
~1,000 kg wet, ~1,000 kg dry
Launch date (UTC)
2024-02-14 (2 years ago)
Launch vehicle
FALCON 9
Launch site
Air Force Eastern Test Range (AFETR)
Object type
Payload
Rocket body
Debris
Shape & HBR
Box + 1 Pan, 1.0 m
Radar Cross Section
0.945 m², Large (>1 m²)

Expand to show TLE details & history
Last TLE update: 14 hours ago

TLE from 14 hours ago
0 RAPTOR2
1 58959U 24028E   25259.26304837 -.00000037  00000-0  45201-4 0  9995
2 58959  39.9897 221.6125 0010973 120.0499 240.1338 13.70526048 79482
Epoch: 2025-09-16T06:18Z
TLE epoch observation values (Epoch: 2025-09-16T06:18:47.379Z)
Latitude
0.00006°
Longitude
131.45929°
Altitude
1,001.2 km
Speed
7.351 km/s
True Right ascension
14h 46m 27s
True Declination
0° 00' 00"
Sunlit
Object was in daylight at epoch
Visualization orbit readout
Latitude
Unknown
Longitude
Unknown
Altitude
Unknown
Speed
Unknown
Apparent Right ascension
Unknown
Apparent Declination
Unknown
Sunlit
N/A
Visualization observer readout
Local Sidereal Time
12:42:25
Azimuth
Unknown
Elevation
Unknown
Doppler factor
Unknown
Orbital elements
Apogee altitude
1,008.056 km
Perigee altitude
991.864 km
Semi-major axis
7,378.097 km
Eccentricity
0.0011
Inclination
39.9897°
RAAN
221.6125°
Arg. of periapsis
120.0499°
True anomaly
240.02483°
Mean anomaly
240.1338°
Eccentric anomaly
240.07931°
Mean motion
3.42473 °/min
Orbital period
105.12 mins
BSTAR
0.000045201
Loading maneuver chart data...
Computing Atmospheric mass density...
Loading historical data...
Loading historical data...
Loading historical data...
Loading historical data...
Loading historical data...
Loading historical data...
Loading historical data...
Other satellites on launch #28 in the year 2024 (2024-02-14 UTC)

Documentation

Showing up to 5 results
|